| time (UTC) | temp F | wind direction | speed MPH | gust MPH | rain 1hr in | rain 24hr in | rain mn in | humidity % | barometer mb |
| 20260504185151 | 67 | 214 | 6.0 | 9.0 | 0.00 | 0.00 | 0.00 | 48 | 970.0 |
| 20260504184649 | 67 | 241 | 4.0 | 10.0 | 0.00 | 0.00 | 0.00 | 49 | 970.1 |
| 20260504184149 | 67 | 240 | 5.0 | 10.0 | 0.00 | 0.00 | 0.00 | 49 | 970.2 |
| 20260504183649 | 67 | 249 | 6.0 | 10.0 | 0.00 | 0.00 | 0.00 | 50 | 970.2 |
| 20260504183148 | 67 | 216 | 6.0 | 11.0 | 0.00 | 0.00 | 0.00 | 50 | 970.2 |
| 20260504182648 | 67 | 256 | 6.0 | 9.0 | 0.00 | 0.00 | 0.00 | 50 | 970.2 |
| 20260504182148 | 66 | 246 | 7.0 | 11.0 | 0.00 | 0.00 | 0.00 | 51 | 970.2 |
| 20260504181127 | 67 | 258 | 7.0 | 12.0 | 0.00 | 0.00 | 0.00 | 49 | 970.4 |
| 20260504180626 | 66 | 264 | 6.0 | 10.0 | 0.00 | 0.00 | 0.00 | 50 | 970.4 |
| 20260504180125 | 65 | 235 | 3.0 | 6.0 | 0.00 | 0.00 | 0.00 | 52 | 970.5 |
| 20260504175625 | 65 | 237 | 7.0 | 12.0 | 0.00 | 0.00 | 0.00 | 52 | 970.6 |
| 20260504175125 | 65 | 262 | 5.0 | 7.0 | 0.00 | 0.00 | 0.00 | 54 | 970.6 |
| 20260504174625 | 64 | 260 | 8.0 | 13.0 | 0.00 | 0.00 | 0.00 | 55 | 970.7 |
| 20260504174124 | 64 | 236 | 6.0 | 10.0 | 0.00 | 0.00 | 0.00 | 56 | 970.8 |
| 20260504173623 | 65 | 250 | 6.0 | 11.0 | 0.00 | 0.00 | 0.00 | 55 | 970.9 |
| 20260504173123 | 65 | 229 | 4.0 | 8.0 | 0.00 | 0.00 | 0.00 | 54 | 970.8 |
| 20260504172623 | 65 | 226 | 3.0 | 5.0 | 0.00 | 0.00 | 0.00 | 55 | 970.9 |
| 20260504172123 | 65 | 263 | 7.0 | 10.0 | 0.00 | 0.00 | 0.00 | 54 | 970.9 |
| 20260504171623 | 65 | 257 | 6.0 | 12.0 | 0.00 | 0.00 | 0.00 | 54 | 971.0 |
| 20260504171122 | 65 | 212 | 4.0 | 7.0 | 0.00 | 0.00 | 0.00 | 55 | 971.0 |
| 20260504170622 | 65 | 252 | 8.0 | 13.0 | 0.00 | 0.00 | 0.00 | 55 | 971.0 |
| 20260504170122 | 65 | 257 | 7.0 | 13.0 | 0.00 | 0.00 | 0.00 | 55 | 971.0 |
| 20260504150930 | 62 | 218 | 3.0 | 5.0 | 0.00 | 0.00 | 0.00 | 57 | 972.1 |
| 20260504150430 | 62 | 248 | 6.0 | 12.0 | 0.00 | 0.00 | 0.00 | 56 | 972.1 |
| 20260504140906 | 58 | 269 | 7.0 | 12.0 | 0.00 | 0.00 | 0.00 | 60 | 972.4 |
| 20260504140406 | 58 | 251 | 5.0 | 6.0 | 0.00 | 0.00 | 0.00 | 61 | 972.5 |
| 20260504120215 | 50 | 253 | 7.0 | 11.0 | 0.00 | 0.00 | 0.00 | 72 | 973.1 |
| 20260504110629 | 46 | 227 | 3.0 | 4.0 | 0.00 | 0.00 | 0.00 | 75 | 973.2 |
| 20260504110129 | 46 | 215 | 2.0 | 3.0 | 0.00 | 0.00 | 0.00 | 75 | 973.2 |
| 20260504100442 | 47 | 222 | 3.0 | 4.0 | 0.00 | 0.00 | 0.00 | 72 | 973.2 |
| 20260504081813 | 49 | 260 | 5.0 | 9.0 | 0.00 | 0.00 | 0.00 | 67 | 973.4 |
| 20260504081313 | 50 | 258 | 5.0 | 9.0 | 0.00 | 0.00 | 0.00 | 66 | 973.5 |
| 20260504080813 | 50 | 258 | 5.0 | 9.0 | 0.00 | 0.00 | 0.00 | 66 | 973.5 |
| 20260504080312 | 50 | 261 | 5.0 | 8.0 | 0.00 | 0.00 | 0.00 | 65 | 973.4 |
| 20260504050536 | 52 | 270 | 9.0 | 13.0 | 0.00 | 0.00 | 0.00 | 56 | 975.3 |
| 20260504045535 | 52 | 263 | 10.0 | 14.0 | 0.00 | 0.00 | 0.00 | 57 | 975.3 |
| 20260504045035 | 52 | 262 | 9.0 | 11.0 | 0.00 | 0.00 | 0.00 | 57 | 975.3 |
| 20260504044535 | 52 | 264 | 10.0 | 18.0 | 0.00 | 0.00 | 0.00 | 57 | 975.3 |
| 20260504044034 | 52 | 278 | 9.0 | 13.0 | 0.00 | 0.00 | 0.00 | 57 | 975.3 |
| 20260504043534 | 53 | 264 | 7.0 | 11.0 | 0.00 | 0.00 | 0.00 | 57 | 975.3 |
| 20260504043034 | 53 | 271 | 6.0 | 10.0 | 0.00 | 0.00 | 0.00 | 57 | 975.3 |
| 20260504042533 | 53 | 259 | 7.0 | 14.0 | 0.00 | 0.00 | 0.00 | 57 | 975.4 |
| 20260504042033 | 53 | 266 | 8.0 | 15.0 | 0.00 | 0.00 | 0.00 | 57 | 975.4 |
| 20260504041533 | 53 | 260 | 6.0 | 10.0 | 0.00 | 0.00 | 0.00 | 57 | 975.4 |
| 20260504041032 | 53 | 276 | 7.0 | 12.0 | 0.00 | 0.00 | 0.00 | 56 | 975.4 |
| 20260504040532 | 53 | 268 | 9.0 | 14.0 | 0.00 | 0.00 | 0.00 | 56 | 975.5 |
| 20260504040032 | 53 | 265 | 12.0 | 16.0 | 0.00 | 0.00 | 0.00 | 56 | 975.5 |
| 20260504035531 | 53 | 269 | 10.0 | 16.0 | 0.00 | 0.00 | 0.00 | 55 | 975.5 |
| 20260504035031 | 53 | 281 | 8.0 | 15.0 | 0.00 | 0.00 | 0.00 | 55 | 975.6 |
| 20260504034531 | 54 | 269 | 10.0 | 15.0 | 0.00 | 0.00 | 0.00 | 55 | 975.6 |
| 20260504034031 | 54 | 270 | 13.0 | 17.0 | 0.00 | 0.00 | 0.00 | 54 | 975.7 |
| 20260504033531 | 54 | 266 | 10.0 | 19.0 | 0.00 | 0.00 | 0.00 | 54 | 975.6 |
| 20260504033030 | 54 | 257 | 11.0 | 22.0 | 0.00 | 0.00 | 0.00 | 53 | 975.7 |
| 20260504032530 | 54 | 267 | 7.0 | 11.0 | 0.00 | 0.00 | 0.00 | 53 | 975.7 |
| 20260504032030 | 54 | 274 | 11.0 | 15.0 | 0.00 | 0.00 | 0.00 | 53 | 975.8 |
| 20260504031530 | 54 | 268 | 12.0 | 16.0 | 0.00 | 0.00 | 0.00 | 53 | 975.8 |
| 20260504030508 | 55 | 280 | 12.0 | 19.0 | 0.00 | 0.00 | 0.00 | 54 | 975.8 |
| 20260504030008 | 55 | 260 | 9.0 | 14.0 | 0.00 | 0.00 | 0.00 | 54 | 975.8 |
| 20260504025508 | 55 | 255 | 10.0 | 14.0 | 0.00 | 0.00 | 0.00 | 53 | 975.8 |
| 20260504025007 | 55 | 270 | 10.0 | 14.0 | 0.00 | 0.00 | 0.00 | 53 | 975.8 |
| 20260504023946 | 55 | 274 | 11.0 | 16.0 | 0.00 | 0.00 | 0.00 | 52 | 975.8 |
| 20260504022925 | 55 | 283 | 8.0 | 13.0 | 0.00 | 0.00 | 0.00 | 50 | 975.7 |
| 20260504022424 | 55 | 274 | 10.0 | 14.0 | 0.00 | 0.00 | 0.00 | 49 | 975.7 |
| 20260504021924 | 55 | 284 | 9.0 | 12.0 | 0.00 | 0.00 | 0.00 | 49 | 975.7 |
| 20260504021424 | 55 | 255 | 10.0 | 14.0 | 0.00 | 0.00 | 0.00 | 48 | 975.7 |
| 20260504020924 | 55 | 267 | 5.0 | 7.0 | 0.00 | 0.00 | 0.00 | 48 | 975.6 |
| 20260504020423 | 56 | 272 | 7.0 | 10.0 | 0.00 | 0.00 | 0.00 | 48 | 975.6 |
| 20260504015922 | 56 | 274 | 8.0 | 11.0 | 0.00 | 0.00 | 0.00 | 48 | 975.6 |
| 20260504014901 | 56 | 271 | 11.0 | 16.0 | 0.00 | 0.00 | 0.00 | 47 | 975.5 |
| 20260504014401 | 56 | 255 | 9.0 | 17.0 | 0.00 | 0.00 | 0.00 | 47 | 975.5 |
| 20260504013900 | 56 | 267 | 8.0 | 11.0 | 0.00 | 0.00 | 0.00 | 46 | 975.5 |
| 20260504013400 | 56 | 272 | 12.0 | 16.0 | 0.00 | 0.00 | 0.00 | 46 | 975.4 |
| 20260504012900 | 56 | 283 | 7.0 | 10.0 | 0.00 | 0.00 | 0.00 | 46 | 975.4 |
| 20260504012400 | 56 | 275 | 9.0 | 14.0 | 0.00 | 0.00 | 0.00 | 46 | 975.4 |
| 20260504011900 | 56 | 259 | 4.0 | 7.0 | 0.00 | 0.00 | 0.00 | 47 | 975.3 |
| 20260504010838 | 56 | 266 | 7.0 | 13.0 | 0.00 | 0.00 | 0.00 | 47 | 975.3 |
| 20260504010338 | 56 | 251 | 4.0 | 8.0 | 0.00 | 0.00 | 0.00 | 47 | 975.3 |
| 20260504005316 | 58 | 198 | 3.0 | 6.0 | 0.00 | 0.00 | 0.00 | 42 | 975.2 |
| 20260504004816 | 58 | 269 | 7.0 | 9.0 | 0.00 | 0.00 | 0.00 | 40 | 975.2 |
| 20260504004315 | 58 | 272 | 6.0 | 8.0 | 0.00 | 0.00 | 0.00 | 40 | 975.2 |
| 20260504003815 | 58 | 282 | 5.0 | 10.0 | 0.00 | 0.00 | 0.00 | 40 | 975.1 |
| 20260504003314 | 58 | 267 | 8.0 | 14.0 | 0.00 | 0.00 | 0.00 | 39 | 975.1 |
| 20260504002814 | 58 | 264 | 6.0 | 9.0 | 0.00 | 0.00 | 0.00 | 40 | 975.1 |
| 20260504001752 | 58 | 251 | 6.0 | 11.0 | 0.00 | 0.00 | 0.00 | 39 | 975.0 |
| 20260504001252 | 58 | 265 | 7.0 | 12.0 | 0.00 | 0.00 | 0.00 | 39 | 975.0 |
| 20260504000752 | 58 | 265 | 6.0 | 12.0 | 0.00 | 0.00 | 0.00 | 38 | 974.9 |
| 20260504000252 | 58 | 269 | 10.0 | 14.0 | 0.00 | 0.00 | 0.00 | 38 | 975.0 |
| 20260503235752 | 58 | 261 | 6.0 | 9.0 | 0.00 | 0.00 | 0.00 | 38 | 975.0 |
| 20260503235250 | 58 | 272 | 9.0 | 13.0 | 0.00 | 0.00 | 0.00 | 38 | 975.0 |
| 20260503234750 | 59 | 261 | 11.0 | 14.0 | 0.00 | 0.00 | 0.00 | 38 | 975.0 |
| 20260503233208 | 59 | 267 | 11.0 | 16.0 | 0.00 | 0.00 | 0.00 | 37 | 975.0 |
| 20260503232146 | 59 | 270 | 9.0 | 12.0 | 0.00 | 0.00 | 0.00 | 36 | 975.1 |
| 20260503231125 | 59 | 278 | 10.0 | 16.0 | 0.00 | 0.00 | 0.00 | 36 | 975.1 |
| 20260503230625 | 59 | 266 | 6.0 | 8.0 | 0.00 | 0.00 | 0.00 | 36 | 975.2 |
| 20260503230124 | 59 | 281 | 7.0 | 9.0 | 0.00 | 0.00 | 0.00 | 36 | 975.2 |
| 20260503225623 | 59 | 278 | 10.0 | 15.0 | 0.00 | 0.00 | 0.00 | 36 | 975.2 |
| 20260503225122 | 59 | 282 | 10.0 | 18.0 | 0.00 | 0.00 | 0.00 | 36 | 975.2 |
| 20260503224622 | 59 | 283 | 8.0 | 15.0 | 0.00 | 0.00 | 0.00 | 36 | 975.2 |
| 20260503224122 | 59 | 271 | 11.0 | 16.0 | 0.00 | 0.00 | 0.00 | 36 | 975.3 |
| 20260503223622 | 59 | 285 | 6.0 | 11.0 | 0.00 | 0.00 | 0.00 | 36 | 975.3 |
| 20260503223121 | 59 | 262 | 10.0 | 13.0 | 0.00 | 0.00 | 0.00 | 36 | 975.4 |
| 20260503222059 | 59 | 270 | 6.0 | 10.0 | 0.00 | 0.00 | 0.00 | 36 | 975.5 |
| 20260503221559 | 59 | 268 | 10.0 | 15.0 | 0.00 | 0.00 | 0.00 | 36 | 975.5 |
| 20260503221058 | 59 | 253 | 8.0 | 16.0 | 0.00 | 0.00 | 0.00 | 36 | 975.5 |
| 20260503220558 | 59 | 255 | 6.0 | 9.0 | 0.00 | 0.00 | 0.00 | 36 | 975.5 |
| 20260503215536 | 59 | 266 | 9.0 | 14.0 | 0.00 | 0.00 | 0.00 | 35 | 975.5 |
| 20260503215036 | 59 | 262 | 8.0 | 11.0 | 0.00 | 0.00 | 0.00 | 36 | 975.5 |
| 20260503214536 | 58 | 273 | 7.0 | 9.0 | 0.00 | 0.00 | 0.00 | 36 | 975.5 |
| 20260503214036 | 58 | 269 | 6.0 | 9.0 | 0.00 | 0.00 | 0.00 | 36 | 975.5 |
| 20260503213535 | 58 | 260 | 8.0 | 13.0 | 0.00 | 0.00 | 0.00 | 35 | 975.5 |
| 20260503213035 | 58 | 280 | 8.0 | 15.0 | 0.00 | 0.00 | 0.00 | 36 | 975.5 |
| 20260503212013 | 58 | 253 | 8.0 | 14.0 | 0.00 | 0.00 | 0.00 | 36 | 975.6 |
| 20260503211513 | 58 | 289 | 6.0 | 10.0 | 0.00 | 0.00 | 0.00 | 36 | 975.6 |
| 20260503211012 | 58 | 297 | 6.0 | 9.0 | 0.00 | 0.00 | 0.00 | 37 | 975.7 |
| 20260503210512 | 58 | 286 | 5.0 | 7.0 | 0.00 | 0.00 | 0.00 | 38 | 975.8 |
| 20260503210011 | 58 | 272 | 6.0 | 8.0 | 0.00 | 0.00 | 0.00 | 38 | 976.0 |
| 20260503205511 | 57 | 301 | 5.0 | 7.0 | 0.00 | 0.00 | 0.00 | 38 | 976.0 |
| 20260503205011 | 57 | 272 | 8.0 | 17.0 | 0.00 | 0.00 | 0.00 | 38 | 976.1 |
| 20260503204510 | 57 | 292 | 7.0 | 10.0 | 0.00 | 0.00 | 0.00 | 39 | 976.2 |
| 20260503204010 | 57 | 279 | 7.0 | 12.0 | 0.00 | 0.00 | 0.00 | 40 | 976.4 |
| 20260503203510 | 57 | 303 | 4.0 | 6.0 | 0.00 | 0.00 | 0.00 | 42 | 976.4 |
| 20260503203010 | 57 | 329 | 7.0 | 11.0 | 0.00 | 0.00 | 0.00 | 41 | 976.3 |
| 20260503202510 | 57 | 309 | 4.0 | 5.0 | 0.00 | 0.00 | 0.00 | 41 | 976.3 |
| 20260503200926 | 57 | 313 | 5.0 | 9.0 | 0.00 | 0.00 | 0.00 | 43 | 976.5 |
| 20260503200426 | 57 | 319 | 12.0 | 19.0 | 0.00 | 0.00 | 0.00 | 43 | 976.6 |
| 20260503195405 | 57 | 290 | 5.0 | 7.0 | 0.00 | 0.00 | 0.00 | 38 | 976.4 |
| 20260503194904 | 57 | 273 | 8.0 | 11.0 | 0.00 | 0.00 | 0.00 | 40 | 976.6 |
| 20260503193843 | 57 | 289 | 8.0 | 13.0 | 0.00 | 0.00 | 0.00 | 37 | 976.5 |
| 20260503193343 | 57 | 318 | 9.0 | 14.0 | 0.00 | 0.00 | 0.00 | 38 | 976.6 |
| 20260503192842 | 57 | 325 | 8.0 | 16.0 | 0.00 | 0.00 | 0.00 | 40 | 976.6 |
| 20260503191821 | 57 | 286 | 4.0 | 7.0 | 0.00 | 0.00 | 0.00 | 41 | 976.8 |
| 20260503191321 | 57 | 284 | 8.0 | 12.0 | 0.00 | 0.00 | 0.00 | 40 | 976.9 |
| 20260503190821 | 56 | 284 | 10.0 | 17.0 | 0.00 | 0.00 | 0.00 | 42 | 977.0 |